Погода в Отаре

Погода в Отаре : погода сейчас, прогноз погоды и архив. Всё, что Вы хотите узнать о погоде в Отаре!

Поиск расширенной информации на нашем сайте:

Другие новости

Новости СМИ2

Главная страница сайта

Новости сайта

03.07.2017

Напоминаем, что на нашем специализированном сайте Метеоцентр.Азия вы можете получить высокодетализированные автоматические прогнозы погоды по пунктам России, СНГ и мира в авиационном формате (включающие направление и скорость ветра, видимость, явления погоды, количество и форму облачности, нижнюю и верхнюю границу облачности).


Погода в Отаре - сегодня

Время (UTC), дата Ветер
(°,м/с) 
Видим.   Явления Облачность Т
(°С)
Тd
(°С)
f(%) Тe
(°С)
Pmin
(гПа)
dP
(гПа)
Po
(мм)
O2
(г/м3)
Тmin Tmax R s Состояние
почвы
15 19.07.17 360 (С) 20000 м    3/3 1000 м 
[Cu med, cong]
+24.4 +8.1 35 +25  1009.5  1.4  696  256    +33.3       
18 19.07.17 тихо ()   н/о    ясно 
+20.2 +7.8 45 +20  1012.8  698  260    +33.3       
21 19.07.17 тихо ()   н/о    ясно 
+16 +5.6 50 +16  1012.8  -1.5  696  264           
00 20.07.17 тихо ()   20000 м    ясно 
+13.6 +6.1 60 +14  1012.5  -0.9  696  266           
03 20.07.17 090 (В) 20000 м    ясно 
+23.2 +5.6 32 +23  1010.3  0.6             
06 20.07.17 070 (В) 20000 м    3/3 2000 м средняя 
[Ac trans]
+27.8 +2.5 20 +28  1007.7  -1.3  695  254  +13.4         
09 20.07.17 050 (СВ) 20000 м    ясно 
+31 +4.1 18 +31  1005.4  -1.2  694  251           
12 20.07.17 090 (В) 20000 м    4/3 1000 м верхняя 
[Cu hum|Ci fib]
+31.2 +5.3 20 +31  1004.7  -0.5  694  250           
15 20.07.17 020 (С) 20000 м    3/3 1000 м 
[Cu hum]
+23.6 +2.9 26 +24  1006.8  0.5  694  257    +32.5       
18 20.07.17 тихо ()   н/о    ясно 
+20.2 +5.1 37 +20  1009.7  1.1  695  260    +32.5       
21 20.07.17 тихо ()   н/о    ясно 
+17.6 +0.2 31 +18  1010.5  -0.1  695  263           
00 21.07.17 тихо ()   20000 м    ясно 
+14.4 +1.3 41 +14  1012.4  0.9  696  266           
03 21.07.17 тихо ()   20000 м    ясно 
+24.1 +5.3 30 +24  1008.7  -0.7  695  257           
06 21.07.17 110 (В) 20000 м    1/1 1000 м 
[Cu hum]
+30.5 +1.1 15 +31  1007.4  0.5  696  252  +14.1         
09 21.07.17 200 (Ю) 20000 м    1/1 1000 м 
[Cu med, cong]
+31.9 +2.5 15 +32  1005  -1.9  694  250           
12 21.07.17 140 (ЮВ) 20000 м    ясно 
+32.6 +3.8 16 +33  1004.2  -0.5  694  249           
15 21.07.17 050 (СВ) 20000 м    ясно 
+27.8 +2.5 20 +28  1006.4  0.7  694  253    +33.2       
18 21.07.17 тихо ()   н/о    ясно 
+21.5 +5.5 35 +22  1009.2  695  259    +33.2       
21 21.07.17 020 (С) н/о    ясно 
+17.9 +3 37 +18  1010  -0.3  695  262           
00 22.07.17 тихо ()   20000 м    ясно 
+14.2 +4 50 +14  1011.3  0.2  695  265           
03 22.07.17 070 (В) 20000 м    ясно 
+27.7 +2.9 20 +28  1006.5  -0.8  751  274           
06 22.07.17 070 (В) 20000 м    ясно 
+31.3 +3.4 17 +31  1006.3  0.8  695  251  +14         
09 22.07.17 050 (СВ) 20000 м    1/1 1000 м 
[Cu hum]
+33.8 +2.3 14 +34  1005.9  0.3  695  249           
12 22.07.17 090 (В) 20000 м    4/1 1000 м верхняя 
[Cu hum|Ci fib]
+34.2 +5.1 16 +34  1004.2  -1.5  694  248           
15 22.07.17 тихо ()   20000 м    5/3 2000 м средняя, верхняя 
[Ac trans|Ci fib]
+28.8 +1.9 18 +29  1006  0.2  694  253    +35.6       
Время (UTC), дата Ветер
(°,м/с) 
Видим.   Явления Облачность Т
(°С)
Тd
(°С)
f(%) Тe
(°С)
Pmin
(гПа)
dP
(гПа)
Po
(мм)
O2
(г/м3)
Тmin Tmax R s Состояние
почвы

Для получения пояснительной информации подведите курсор к названию столбца.

ПОГОДА в Отаре - архив

Всё, что Вы хотите узнать о погоде в Отаре - удобно и подробно!

Выберите нужную дату (начиная с 1 января 2015* года) и нажмите кнопку "Найти".
Будут отображены архивные сводки погоды по пункту Отар, начиная с указанной даты.


Отображать данные в формате CSV (для использования в таблицах Excel)


Внимание! Наш архив погоды предназначен исключительно для личного некоммерческого использования в познавательных целях. Если Вам необходимы официальные справки о состоянии погоды (для производственных, юридических, коммерческих и т.п. целей), обращайтесь в органы Росгидромета.

*Примечание: данная дата относится к архиву по метеостанциям СССР (Россия, СНГ, Балтия).
Архив по метеостанциям Зарубежной Европы и Азии (кроме Китая) хранится 10 дней, по другим регионам земного шара (Китай, Африка, Америка, Австралия, Океания) - 1 день.

Отар - район местоположения метеостанции


Название, широта, долгота, высота метеостанции:
Отар 43.5°ш. 75.2°д. 743 м над ур. моря [Казахстан]

Дополнительная информация

В oтличие oт бoльшинства пoгoдных сайтoв мы публикуем пoдрoбную метеoинфoрмацию в детальнoм прoфессиoнальнoм фoрмате.

Характеристики температуры и влажнoсти вoздуха измеряются на высoте 2 м в тени вдали oт зданий и деревьев.
Скoрoсть ветра измеряется на высoте 10 м (на урoвне рoста челoвека скoрoсть ветра ниже в 1.5-2 раза). Если метеoстанция нахoдится в гoрoде или в лесу, тo скoрoсть ветра занижена на 2-4 м/с пo сравнению с oткрытым местoм. Скoрoсть ветра над акватoриями крупных рек и oзёр, а также на вершинах хoлмoв на 2-5 м/с выше, чем в oбычных услoвиях.
Атмoсфернoе давление в разных тoчках местнoсти мoжет значительнo oтличаться oт давления на метеoстанции, в зависимoсти oт услoвий рельефа (при пoдъёме на 10 м давление пoнижается примернo на 1 мм рт.ст.).